#timestamp,LO_Frequency,Hit,StdDev 
1506769215.1,286046998.5,N
1506769235.9,286046998.1,N
1506769255.7,286047001.2,N
1506769275.6,286046998.2,N
1506769295.4,286046998.2,N
1506769315.2,286047001.0,N
1506769335.1,286047001.2,N
1506769336.0,286047001.2,N
1506769355.8,286047000.7,N
1506769375.6,286046998.6,N
1506769395.5,286047001.2,N
1506769415.3,286046998.6,N
1506769435.2,286047001.1,N
1506769455.0,286046998.1,N
1506769455.9,286046998.1,N
1506769475.7,286046998.1,N
1506769495.6,286046999.0,N
1506769515.4,286046999.6,N
1506769535.3,286046998.9,N
1506769555.1,286046999.1,N
1506769556.0,286046999.1,N
1506769575.8,286047001.2,N
1506769595.7,286046999.0,N
1506769615.5,286046999.6,N
1506769635.4,286046997.6,N
1506769655.2,286046997.8,N
1506769675.0,286046997.5,N
1506769675.9,286046997.5,N
1506769695.8,286046994.9,Y
1506769715.6,286046997.3,P
1506769735.4,286046995.2,P
1506769755.3,286046996.2,N
1506769775.1,286046993.3,Y
1506769795.9,286047000.7,P
1506769815.7,286046998.5,N
1506769835.5,286047001.2,N
1506769855.4,286047000.4,N
1506769875.2,286047000.4,N
1506769895.1,286047000.0,N
1506769896.0,286047000.0,N
1506769915.8,286046999.7,N
1506769935.6,286046999.8,N
1506769955.5,286047004.4,Y
1506769975.3,286047003.7,P
1506769995.2,286047003.7,N
1506770015.9,286047003.5,N
1506770035.7,286047003.5,N
1506770055.6,286047004.3,N
1506770075.4,286047001.6,N
1506770095.3,286047001.4,N
1506770115.1,286047001.9,N
1506770116.0,286047001.9,N
1506770135.8,286047001.9,N
1506770155.7,286047002.1,N
1506770175.5,286047002.3,N
1506770195.3,286047001.9,N
1506770215.2,286047002.1,N
1506770235.0,286047001.5,N
1506770235.9,286047001.5,N
1506770255.8,286047001.9,N
1506770275.6,286047002.0,N
1506770295.4,286047001.5,N
1506770315.3,286047002.1,N
1506770335.1,286047001.5,N
1506770355.9,286047002.1,N
1506770375.7,286046999.7,N
1506770395.5,286047001.6,N
1506770415.4,286047002.4,N
1506770435.2,286047000.0,N
1506770455.0,286046998.7,N
1506770455.9,286046998.7,N
1506770475.8,286047001.2,N
1506770495.6,286047000.9,N
1506770515.5,286047000.6,N
1506770535.3,286046998.5,N
1506770555.1,286046998.8,N
1506770575.9,286047000.4,N
1506770595.7,286047000.5,N
1506770615.5,286047002.0,N
1506770635.4,286047000.1,N
1506770655.2,286047000.7,N
1506770675.1,286047001.0,N
1506770676.0,286047001.0,N
1506770695.8,286046999.8,N
1506770715.6,286047000.4,N
1506770735.5,286046999.8,N
1506770755.3,286047002.7,N
1506770775.2,286047002.1,N
1506770795.9,286047011.9,Y
1506770815.7,286047000.3,P
1506770835.6,286047001.1,P
1506770855.4,286046998.4,P
1506770875.2,286046999.2,N
1506770895.1,286046997.2,N
1506770896.0,286046997.2,N
1506770915.8,286046999.2,N
1506770935.7,286046997.2,N
1506770955.5,286046999.2,N
1506770975.3,286047002.5,N
1506770995.2,286047000.5,N
1506771015.0,286046998.2,N
1506771015.9,286046998.2,N
1506771035.8,286047011.9,Y
1506771055.6,286046998.6,P
1506771075.4,286046999.3,N
1506771095.3,286046998.8,P
1506771115.1,286046998.3,Y
1506771135.8,286046997.1,P
1506771155.7,286046997.3,N
1506771175.5,286046999.5,N
1506771195.4,286046998.9,N
1506771215.2,286047000.3,N
1506771235.0,286047002.3,N
1506771235.9,286047002.3,N
1506771255.8,286047003.2,N
1506771275.6,286047003.8,N
1506771295.5,286047001.7,N
1506771315.3,286047002.3,N
1506771335.1,286047000.3,N
1506771355.9,286046999.1,N
1506771375.7,286046998.5,N
1506771395.5,286047001.1,N
1506771415.4,286046996.5,N
1506771435.2,286046996.7,N
1506771455.1,286046999.6,N
1506771456.0,286046999.6,N
1506771475.8,286046997.0,N
1506771495.6,286046997.1,N
1506771515.5,286046995.3,N
1506771535.3,286046996.2,N
1506771555.2,286046993.7,N
1506771575.9,286046995.5,N
1506771595.7,286046995.7,N
1506771615.6,286046997.8,N
1506771635.4,286046997.3,N
1506771655.2,286046995.6,N
1506771675.1,286046996.4,N
1506771676.0,286046996.4,N
1506771695.8,286046994.5,N
1506771715.7,286046993.6,N
1506771735.5,286046993.4,N
1506771755.3,286046997.8,N
1506771775.2,286046998.1,N
1506771795.0,286047002.6,N
1506771795.9,286047002.6,N
1506771815.8,286047003.8,N
1506771835.6,286047006.9,N
1506771855.4,286047011.7,Y
1506771875.3,286047012.4,P
1506771895.1,286047008.4,N
1506771915.8,286047007.4,N
1506771935.7,286047001.4,N
1506771955.5,286046999.1,N
1506771975.4,286046995.6,N
1506771995.2,286046994.0,N
1506772015.0,286046991.8,N
1506772015.9,286046991.8,N
1506772035.8,286046992.9,N
1506772055.6,286046991.6,N
1506772075.4,286046991.1,N
1506772095.3,286046989.8,N
1506772115.1,286046988.4,N
1506772135.9,286046985.3,N
1506772155.7,286046983.9,N
1506772175.5,286046985.1,N
1506772195.4,286046982.7,N
1506772215.2,286046985.2,N
1506772235.1,286046984.6,N
1506772236.0,286046984.6,N
1506772255.8,286046983.8,N
1506772275.6,286046985.6,N
1506772295.5,286046986.5,N
1506772315.3,286046982.1,N
1506772335.2,286046985.0,N
1506772355.9,286046986.5,N
1506772375.7,286046986.3,N
1506772395.6,286046986.3,N
1506772415.4,286046984.5,N
1506772435.3,286046984.7,N
1506772455.1,286046982.2,N
1506772456.0,286046982.2,N
1506772475.8,286046984.9,Y
1506772495.7,286046997.7,P
1506772515.5,286046995.0,N
1506772535.4,286046999.6,N
1506772555.2,286046998.4,N
1506772575.0,286047000.0,N
1506772575.9,286047000.0,N
1506772595.8,286047000.8,N
1506772615.6,286046998.5,N
1506772635.4,286047002.4,N
1506772655.3,286047000.1,N
1506772675.1,286046999.9,N
1506772695.9,286047004.4,N
1506772715.7,286047004.3,N
1506772735.5,286047004.0,N
1506772755.4,286047001.5,N
1506772775.2,286047003.1,N
1506772795.1,286047003.4,N
1506772796.0,286047003.4,N
